Location: Ergnies
(50.0854°N, 2.0375°E)
Time: 11:14:09
(UTC+00:00)

Cosmos 1500 Rocket - Pass Details

Date: 14 January 2026
Orbit: 597 x 623 km, 82.5° (Epoch: 10 February)

Event Time Altitude Azimuth Distance (km) Brightness Sun altitude
Rises 05:57:44 0° 197° (SSW) 2,851 6.9 -16.7°
Reaches altitude 10° 05:59:57 10° 201° (SSW) 1,956 6.0 -16.3°
Maximum altitude 06:04:14 62° 282° (WNW) 693 3.5 -15.6°
Drops below altitude 10° 06:08:36 10° 4° (N) 1,989 6.0 -15.0°
Sets 06:10:52 0° 8° (N) 2,903 6.9 -14.6°
